Theta_e
304 305 306 306 306 306 306 306 306 308 310 310 309 308 308 308 308 308 307 307 307 307 308 308 308 309 309 309 308 307 307 307 306 304 303 303 304 306 306 306 306 306 307 306 306 308 308 308 309 306 306 308 304 305 305 305 313 320 320 312 311 314 312 315 316 312 310 309 311 309 308 311 309 303 297 296 296 295 294 292 291 290 289 290 290 291 291 291
305 305 306 306 306 306 306 306 307 309 310 309 308 309 309 308 307 308 308 308 307 307 308 308 309 309 309 309 308 308 307 306 305 304 303 304 305 306 306 305 306 307 307 306 307 308 309 310 309 307 309 308 304 306 308 304 311 322 317 310 315 319 314 313 313 311 308 307 310 310 307 307 308 304 299 302 300 296 298 294 291 291 290 290 289 290 290 289
304 305 306 306 306 306 307 307 308 310 310 309 308 308 308 307 308 308 308 308 308 307 307 308 308 308 309 308 308 308 307 306 305 304 304 305 306 306 305 305 306 306 306 306 308 308 310 310 306 308 313 310 305 308 314 309 309 316 312 311 319 319 313 310 309 308 306 305 308 309 306 305 305 301 300 305 302 299 302 296 293 293 290 290 289 289 289 288
305 306 306 306 306 307 307 307 309 309 309 308 308 308 308 307 308 307 308 309 308 307 307 307 307 307 308 307 308 307 307 308 305 303 304 305 306 307 306 306 306 306 307 307 308 309 309 307 305 311 313 311 314 313 314 310 308 309 309 313 314 310 310 308 306 306 305 304 308 310 306 306 304 300 302 304 303 305 304 299 296 294 290 290 289 288 288 287
306 307 307 307 307 307 307 308 308 308 308 308 309 308 307 307 308 307 307 309 308 307 307 308 308 307 306 307 308 306 308 311 305 303 304 305 306 307 306 306 306 306 307 307 308 309 308 306 309 319 317 314 320 315 309 307 306 308 308 309 308 306 307 306 305 304 304 305 308 310 306 305 302 302 304 303 305 307 303 298 295 292 290 290 289 288 287 286
306 306 307 307 308 307 307 307 308 308 307 308 308 308 307 307 308 307 306 308 308 307 307 309 309 308 306 306 306 306 309 309 303 303 304 305 307 307 306 306 306 306 307 308 307 307 309 310 313 321 320 315 316 311 310 309 306 310 311 307 305 305 304 304 304 303 304 305 307 308 304 303 304 304 303 302 301 299 295 293 292 290 289 289 288 287 286 286
306 306 307 307 307 307 307 307 308 307 308 308 308 307 307 307 308 308 305 307 308 308 309 309 309 309 308 307 306 305 306 305 302 303 304 306 307 306 307 307 306 305 306 307 307 309 313 316 316 318 317 313 310 310 312 310 310 312 310 306 304 303 302 302 303 303 304 305 305 304 302 303 306 304 301 298 294 291 291 291 290 289 288 288 288 287 286 285
306 307 307 307 307 308 307 307 307 308 308 308 309 308 308 308 308 308 306 305 307 308 309 309 309 309 309 308 306 305 304 303 302 304 305 306 307 306 307 307 306 306 305 305 305 309 313 313 312 312 314 311 308 310 310 310 313 312 308 308 306 303 303 303 303 304 304 304 303 301 303 305 303 301 300 295 290 289 290 289 289 288 288 287 287 286 285 284
307 307 307 307 307 308 307 307 307 307 308 309 309 307 307 308 308 309 307 305 305 306 306 307 307 307 306 305 305 306 303 302 303 304 306 307 307 306 307 307 306 305 304 304 304 307 310 310 309 309 311 309 307 310 310 309 310 309 309 309 306 303 304 303 303 304 304 304 302 302 306 306 299 298 298 292 289 290 289 289 289 288 288 287 286 285 285 284
308 307 307 307 307 308 307 307 307 308 308 309 308 307 308 308 308 309 308 308 306 306 306 305 305 305 305 304 305 305 303 303 303 304 306 307 307 307 308 306 305 305 303 304 305 305 307 308 306 305 310 310 307 307 306 308 307 306 308 307 304 303 302 301 303 304 304 302 302 303 306 303 297 299 299 291 289 290 289 289 288 287 287 286 286 285 284 284
307 306 307 307 307 308 307 307 307 308 308 309 308 307 308 308 308 309 308 308 307 306 306 305 305 305 304 303 304 304 302 303 303 305 306 306 307 307 306 305 304 304 303 303 303 304 305 305 302 303 309 307 305 305 304 305 305 304 305 305 305 304 300 300 303 304 301 301 301 302 302 300 298 300 298 291 290 290 289 289 286 286 285 284 284 284 284 284
306 307 307 307 307 307 307 308 308 308 308 308 308 307 308 308 308 308 308 308 307 307 307 306 305 305 304 302 303 303 302 303 303 305 305 305 306 305 305 305 304 304 303 303 302 304 305 304 304 307 309 306 305 306 303 303 304 305 303 304 308 306 302 299 301 303 300 301 302 299 300 299 298 296 294 291 290 289 288 287 285 284 284 284 284 283 284 283
307 307 307 308 308 307 308 308 308 309 308 308 308 308 308 307 308 308 308 309 309 307 307 306 305 305 305 304 303 302 303 302 303 305 305 305 305 304 304 303 303 303 303 303 302 303 303 303 304 306 307 309 307 303 302 302 303 304 300 304 308 305 304 300 299 303 301 301 301 298 300 300 295 291 291 291 289 289 288 286 284 284 283 283 283 283 283 283
307 307 307 307 307 307 308 307 308 308 308 308 308 308 308 307 308 308 308 308 308 307 306 307 306 305 306 305 303 302 303 302 304 305 305 305 304 304 303 302 301 302 302 303 302 302 302 302 302 303 304 306 303 300 306 307 304 303 302 306 305 301 305 302 299 302 299 299 300 298 300 300 294 290 291 290 289 289 287 285 284 283 283 283 283 283 283 283
306 307 307 307 307 307 307 307 307 307 308 308 308 308 307 308 307 307 307 306 306 306 305 306 306 306 307 305 302 302 302 302 303 302 303 304 304 303 303 302 301 301 301 301 301 302 302 302 303 305 305 302 303 306 312 312 309 305 303 307 304 299 302 300 301 302 299 298 300 299 300 300 294 289 290 290 289 289 286 284 283 283 283 283 283 282 282 282
306 307 307 307 307 307 307 307 306 307 307 307 308 308 307 307 307 307 307 305 306 306 305 306 303 306 308 304 302 303 302 302 301 300 302 304 303 302 302 302 302 302 301 300 301 301 300 303 302 302 305 304 304 310 315 316 312 306 301 300 301 299 298 298 301 300 297 298 300 299 298 299 294 288 289 289 289 288 285 284 283 283 283 282 283 283 282 282
307 307 307 307 307 307 307 306 306 306 307 307 307 307 306 306 306 306 306 307 307 305 305 305 302 305 307 303 303 304 302 301 301 300 302 303 303 303 301 301 300 299 300 300 300 301 299 302 301 299 303 303 301 305 312 311 305 303 300 298 298 298 297 298 299 299 298 298 299 299 297 297 294 288 288 289 289 287 285 284 283 283 283 283 283 282 282 282
307 307 308 307 307 307 305 305 306 305 305 306 306 306 306 306 306 306 306 306 306 306 307 305 305 309 308 304 303 302 301 301 300 300 301 303 303 303 301 300 298 298 305 305 300 301 301 302 302 300 300 301 302 302 304 301 297 298 299 299 299 297 297 298 297 299 299 298 298 298 297 297 292 288 288 288 288 286 284 284 283 283 283 283 283 282 282 282
307 308 308 307 307 306 305 305 306 305 306 307 307 308 306 305 306 306 304 304 307 308 308 306 305 308 306 302 301 301 301 301 300 299 300 302 303 303 301 300 298 300 310 310 301 301 303 304 305 303 300 300 302 301 299 297 297 299 298 299 299 297 297 297 297 299 297 297 299 299 298 296 290 288 288 287 287 286 284 284 284 284 283 283 283 282 282 282
308 308 308 307 307 305 306 306 306 307 307 307 308 308 310 314 313 308 305 303 304 303 305 305 303 304 304 302 301 301 301 301 300 299 299 301 302 303 301 302 304 303 306 306 301 300 301 305 304 300 300 298 299 300 299 298 299 300 298 298 298 297 296 296 297 300 297 297 299 299 298 294 289 287 287 286 286 285 284 285 284 284 284 283 283 283 283 282
308 309 308 307 306 306 306 306 307 307 307 308 308 309 312 317 314 308 305 303 301 300 302 303 301 302 302 301 301 300 301 301 300 299 299 301 302 303 303 306 311 305 302 302 301 301 301 303 301 297 298 297 297 300 300 300 300 299 298 297 297 296 296 296 297 298 296 296 298 298 297 293 288 287 287 285 285 285 284 284 284 284 283 283 283 283 283 283
308 309 309 307 307 307 307 307 308 307 308 308 308 309 308 309 307 305 307 307 302 300 301 300 300 302 301 300 301 300 300 301 302 299 298 301 303 305 306 309 311 306 304 305 305 306 305 300 298 298 298 298 298 299 299 299 298 297 297 297 298 296 296 297 297 297 296 295 296 297 296 292 288 287 287 286 285 285 285 284 284 283 283 282 282 282 283 283
308 309 310 309 308 307 307 308 308 308 309 307 307 307 306 306 306 305 307 309 304 300 302 303 303 304 303 301 300 301 302 301 302 300 297 300 302 305 308 308 309 308 306 305 303 304 304 299 298 299 299 300 300 299 298 298 298 297 297 298 299 296 295 296 297 297 296 294 295 296 295 291 287 286 286 286 286 285 284 284 284 283 283 283 283 282 282 282
308 308 309 309 308 308 308 307 307 308 307 307 307 306 307 307 306 305 306 307 306 302 301 301 302 303 303 301 300 301 303 300 300 300 297 299 301 303 307 305 305 307 304 303 304 303 300 298 297 298 300 300 299 299 297 297 298 296 298 299 297 295 295 295 295 295 295 295 294 294 296 293 287 287 286 286 286 284 284 284 283 283 284 283 283 283 282 282
307 308 308 309 309 309 308 307 308 308 307 307 307 307 308 307 306 307 308 308 307 304 302 300 300 303 301 300 300 300 301 300 299 299 297 297 300 303 305 301 301 304 303 303 305 303 299 297 296 298 301 302 300 298 296 297 298 297 298 297 295 295 295 294 294 294 294 295 294 293 297 295 289 287 286 285 285 284 284 283 283 283 283 283 283 282 282 282
307 308 308 308 308 308 309 309 308 307 308 308 307 307 307 307 308 307 312 321 316 304 304 304 302 303 302 300 299 298 303 304 298 297 298 297 297 300 302 300 301 302 302 302 303 301 298 298 298 299 303 305 301 297 295 296 298 297 297 295 295 295 294 294 294 294 295 295 294 293 295 295 292 290 288 285 285 284 283 283 283 283 283 282 282 282 282 282
306 307 307 307 308 308 309 310 308 307 309 307 306 307 305 306 308 304 312 329 320 303 304 308 303 303 304 299 297 301 305 304 299 298 298 297 296 298 301 301 301 302 300 302 305 301 298 301 303 302 302 303 301 299 297 296 297 297 296 294 295 295 295 295 293 293 295 294 294 294 293 295 295 293 289 286 285 284 283 283 283 283 283 283 283 282 282 282
306 306 306 307 306 307 308 308 308 307 307 307 307 307 306 307 307 308 317 319 310 304 304 306 303 302 303 299 299 305 303 300 302 300 297 296 296 299 302 299 299 302 299 301 305 302 298 299 302 302 302 300 300 299 297 296 296 297 296 294 295 295 294 294 294 294 293 293 295 294 291 294 295 293 289 286 286 286 284 283 283 283 283 283 283 283 283 282
305 305 305 306 306 307 308 308 308 307 306 307 307 307 307 307 305 311 321 313 304 304 304 303 303 303 304 304 304 305 302 300 301 299 297 297 296 298 300 297 298 302 300 299 301 300 297 297 298 300 301 299 299 299 298 297 296 295 295 294 295 295 294 294 294 295 296 296 297 293 290 293 294 293 290 288 287 286 284 283 284 284 284 284 284 283 283 282
305 305 305 305 306 307 308 307 307 306 306 306 307 308 306 308 317 320 315 308 304 304 303 303 303 303 305 308 307 304 302 302 300 299 299 297 296 297 296 295 298 303 302 302 303 299 295 297 298 300 300 298 298 299 298 296 296 296 295 294 294 295 295 296 295 296 298 300 297 294 292 292 293 291 288 286 287 285 284 284 284 285 284 284 284 284 283 283
305 305 305 306 307 308 308 308 306 305 306 307 307 308 304 311 331 333 309 302 304 305 305 305 304 305 305 305 303 302 303 304 301 301 302 298 295 296 297 296 299 306 308 305 305 301 298 299 300 298 298 297 297 298 296 295 296 296 295 294 294 294 294 295 296 297 297 297 295 293 292 292 294 291 285 283 284 284 285 285 285 285 284 284 284 283 283 283
306 306 306 307 307 308 308 307 306 305 307 308 306 309 314 316 322 319 308 304 305 304 303 303 304 305 304 302 301 300 302 304 302 300 300 299 296 294 296 297 297 303 307 302 300 302 303 300 296 295 296 296 296 296 295 295 295 295 294 294 293 293 293 294 295 296 296 296 294 293 292 293 294 290 284 282 283 284 285 285 284 284 284 283 283 283 283 282
305 306 306 307 307 307 306 305 306 306 307 308 308 315 331 330 312 304 307 309 303 300 301 302 303 302 302 304 303 300 299 300 300 299 298 300 299 296 296 296 295 299 302 299 297 300 304 301 297 296 296 296 295 294 294 294 294 295 295 294 293 292 293 294 293 294 295 294 293 292 291 294 294 288 284 283 284 284 284 284 285 284 284 283 283 282 282 281
305 306 305 306 305 305 306 305 306 308 307 307 311 318 325 322 307 301 307 308 302 300 302 302 303 302 301 303 301 299 301 300 298 301 301 301 302 300 298 296 296 297 299 299 296 297 301 301 299 296 295 296 295 293 294 294 294 295 295 294 294 293 293 294 294 293 293 293 293 293 292 294 294 288 284 283 284 284 284 285 285 284 284 283 282 281 281 280
306 305 304 305 305 304 305 305 306 309 305 307 320 322 316 310 304 303 306 305 302 304 302 299 303 307 306 304 300 297 298 301 300 301 302 301 300 299 298 296 295 296 299 300 296 295 298 299 299 295 293 296 296 293 293 294 294 294 294 293 294 293 294 294 293 292 292 292 293 295 294 294 291 285 283 283 284 284 285 285 284 283 282 282 281 280 280 279
306 304 304 304 304 304 305 304 306 307 305 316 328 319 311 308 302 304 306 301 300 303 303 301 304 312 312 308 307 302 297 299 302 301 301 300 299 297 296 296 294 294 298 299 296 295 297 299 298 295 295 295 294 293 293 294 295 295 293 292 292 292 293 294 292 291 292 292 293 294 293 292 289 285 283 283 285 286 286 284 282 282 281 281 280 279 279 279
307 304 302 302 303 304 304 305 306 305 308 323 326 309 303 302 297 301 305 302 298 299 305 308 303 304 306 306 310 308 300 299 300 300 300 299 298 298 296 295 293 293 295 295 295 296 296 299 297 295 297 296 292 292 294 293 294 295 294 292 291 292 292 292 291 291 292 292 293 292 292 291 290 288 285 284 286 286 284 283 282 281 280 280 279 279 279 279
306 305 302 301 302 303 304 306 304 305 312 322 320 306 301 300 297 300 303 301 299 300 307 309 301 298 301 304 306 304 302 304 303 300 300 299 298 297 296 295 293 294 295 294 296 296 294 298 297 293 294 295 292 293 295 294 292 293 293 292 292 293 294 292 290 291 292 292 291 291 291 290 290 289 287 286 286 284 282 282 281 280 280 279 278 278 278 277
305 308 306 301 302 302 303 304 302 307 318 320 315 307 301 300 300 300 300 298 299 303 306 304 299 299 300 300 302 301 301 303 302 300 300 299 298 296 295 294 293 295 295 293 296 297 293 297 299 294 292 294 294 294 295 294 293 293 294 292 292 292 293 291 289 290 292 291 291 291 290 289 289 288 287 286 285 283 282 281 280 279 279 278 278 278 277 276
304 310 307 300 302 304 301 301 304 313 319 312 308 305 300 300 301 299 298 298 299 300 302 302 300 300 300 298 299 300 300 301 300 300 301 298 297 297 295 294 294 295 293 292 294 294 293 295 298 296 293 294 296 294 293 293 293 293 294 293 291 291 290 290 289 290 291 290 290 289 288 288 288 287 286 285 284 282 281 280 280 279 278 278 278 277 276 275
304 313 308 299 302 303 303 307 308 309 310 305 303 303 300 300 301 300 297 297 299 299 298 301 302 301 301 299 297 298 301 302 300 300 301 298 297 297 295 293 296 295 293 294 293 293 294 295 295 296 294 295 296 293 291 292 292 292 292 291 290 289 289 290 289 289 289 289 288 287 287 288 288 286 285 284 283 281 281 280 279 279 278 277 277 276 275 275
309 314 304 300 302 302 306 311 304 302 309 306 302 301 302 303 301 300 299 297 299 300 299 300 302 302 301 300 299 300 301 302 301 300 298 298 298 297 294 291 292 291 293 295 292 291 294 294 293 296 295 293 293 292 291 292 291 290 290 289 290 290 290 290 290 289 288 287 287 287 288 288 288 287 285 283 282 281 280 279 279 278 277 277 276 275 275 275
315 310 300 301 302 302 310 313 305 303 307 302 298 298 300 303 302 299 299 299 299 299 300 301 299 299 299 299 300 301 299 298 299 298 297 299 299 296 293 291 290 290 293 295 292 291 294 294 292 295 296 293 293 291 290 292 291 291 289 287 288 289 288 288 287 286 286 286 287 287 288 288 287 287 285 283 282 281 280 279 278 277 277 276 275 274 275 274
312 303 301 302 299 305 318 317 310 307 302 298 299 299 298 300 302 300 299 300 300 300 301 302 298 297 298 299 301 301 298 297 298 296 296 300 298 293 291 291 292 293 292 293 293 292 293 295 295 296 296 295 295 292 291 293 293 291 289 286 286 286 286 286 285 284 286 287 287 287 287 287 286 286 284 282 281 280 279 278 277 276 276 274 274 274 274 273
306 302 307 306 298 302 311 308 307 310 304 302 302 299 299 300 299 300 300 300 300 299 301 300 297 298 298 297 300 300 298 297 296 295 295 297 297 294 292 291 292 294 292 290 292 293 292 293 295 297 297 296 296 295 294 294 292 290 289 286 285 285 284 286 286 286 287 287 287 287 287 286 285 285 283 282 280 279 278 277 277 276 275 274 274 274 273 272
309 310 313 311 301 299 301 299 305 309 305 308 305 298 300 302 298 297 299 299 299 299 301 299 297 298 298 298 302 303 300 297 296 297 298 298 299 296 292 291 291 293 292 290 291 293 292 292 294 297 297 295 295 294 293 293 291 290 290 287 286 285 283 285 287 287 286 286 286 287 286 285 284 283 282 281 279 278 277 276 276 275 274 273 273 273 272 271
316 314 306 306 306 305 304 303 307 308 304 308 306 297 300 303 299 298 298 297 298 299 300 300 298 299 300 300 303 303 300 297 295 297 298 297 298 295 290 290 291 291 292 291 291 293 294 294 294 295 295 295 294 292 291 291 289 289 289 287 286 285 284 285 286 286 286 286 286 286 285 284 283 282 281 280 279 277 276 275 275 274 273 273 273 271 271 270
309 307 298 300 306 307 305 303 306 307 305 307 304 299 301 302 300 302 299 297 297 297 298 300 298 300 302 300 301 302 300 298 296 296 296 296 298 298 293 292 292 292 291 291 291 293 296 295 292 292 293 293 292 290 289 289 289 288 288 287 285 285 285 285 285 285 286 285 285 285 284 283 282 281 280 279 278 277 276 275 274 273 273 272 271 270 269 269
301 304 298 297 303 304 303 301 303 307 307 309 307 301 302 305 302 300 298 298 299 296 297 299 297 300 304 300 300 303 302 299 297 297 297 297 297 298 297 295 293 291 290 291 291 290 293 296 293 290 292 291 289 290 289 288 289 288 287 286 285 284 285 285 285 285 285 285 284 284 283 282 281 281 279 278 277 276 275 274 273 273 272 271 270 269 269 268
305 309 303 302 305 303 302 302 305 310 308 308 309 302 301 307 304 299 297 298 300 297 297 298 297 300 303 299 300 302 299 297 296 295 296 297 297 297 298 296 294 293 292 291 289 287 290 294 292 289 291 291 290 291 290 289 289 287 286 286 285 284 285 285 284 284 284 284 283 282 282 281 281 280 279 277 276 275 274 273 272 272 272 270 269 269 268 268
302 302 301 308 308 302 304 304 304 312 310 307 308 303 301 305 303 301 299 296 298 299 297 297 300 300 299 297 300 301 296 295 296 295 295 296 296 297 296 294 294 296 295 291 289 290 291 292 291 290 292 293 292 291 289 288 286 286 287 286 284 284 285 284 284 284 284 283 283 281 281 281 280 279 278 276 275 274 273 272 272 272 271 269 269 268 268 268
299 297 298 310 309 300 303 305 304 311 307 302 305 303 302 303 300 300 302 299 297 298 296 297 299 299 299 300 300 297 295 295 295 293 293 293 293 294 294 293 293 295 296 292 289 290 290 291 292 291 292 295 292 289 288 288 289 291 290 286 284 284 284 284 284 284 283 283 282 281 280 280 279 278 276 275 274 273 272 272 272 271 270 269 268 267 267 267
Wind_Speed
8 8 8 8 8 9 9 10 11 11 12 13 14 13 13 13 13 13 11 9 6 5 4 4 3 2 3 5 7 6 12 23 30 35 27 19 26 22 18 21 23 21 18 13 9 7 3 4 5 6 5 3 4 2 3 4 3 4 3 2 2 2 2 4 5 5 2 2 3 2 1 2 1 0 3 1 7 5 5 5 4 7 9 8 10 16 19 17
8 7 8 8 8 10 10 10 12 11 12 12 12 12 12 13 13 12 10 8 5 3 2 2 1 2 3 3 5 5 7 21 32 30 23 25 26 18 18 24 23 19 15 9 8 7 3 3 4 6 6 3 3 3 3 3 3 3 3 1 2 4 4 4 4 3 2 1 3 3 1 0 3 3 4 1 1 2 5 4 4 7 8 9 13 18 19 17
7 7 8 9 10 11 10 11 12 11 11 10 11 11 12 13 15 14 9 8 7 5 3 1 3 5 5 5 4 3 2 17 25 19 25 29 23 17 20 24 23 18 13 9 7 6 4 2 3 5 4 3 2 3 3 3 2 1 2 0 4 4 3 3 3 3 3 2 2 3 1 0 2 2 3 2 3 2 3 3 3 5 5 5 9 17 19 18
9 9 9 10 10 11 10 10 10 10 9 9 9 10 11 12 16 16 11 9 10 10 10 10 11 7 3 4 3 2 1 10 11 14 27 28 20 17 18 22 25 18 11 9 7 6 5 4 6 5 4 2 3 3 3 4 2 2 2 2 5 2 1 2 3 4 3 2 1 1 1 1 3 2 2 4 3 3 3 4 5 9 10 8 7 13 17 18
10 10 9 10 10 10 10 9 8 8 8 8 9 9 10 11 14 17 13 9 11 14 13 14 17 18 15 9 4 3 1 6 7 19 28 24 17 15 16 20 22 17 11 8 6 6 4 4 7 6 4 2 4 4 1 3 1 1 0 3 5 2 1 3 2 3 3 1 3 2 1 1 1 0 2 5 3 3 2 3 6 11 11 10 10 13 16 18
9 9 9 9 10 9 8 7 7 7 7 7 8 9 9 10 12 16 15 9 10 12 9 8 11 14 18 18 16 10 7 3 9 22 26 20 14 13 15 16 18 16 11 9 6 5 4 5 7 4 3 3 3 3 1 4 1 0 1 0 2 2 1 4 3 2 1 2 2 1 1 1 2 1 1 2 2 4 3 2 9 13 12 15 15 14 14 14
9 9 9 8 8 8 7 6 6 6 7 7 8 8 8 10 11 13 17 12 7 7 3 3 6 8 6 8 19 21 10 1 14 23 23 16 10 11 13 13 16 15 13 14 10 4 5 7 5 3 4 3 0 2 0 4 4 3 0 3 1 2 2 4 4 3 1 1 2 1 0 0 1 2 2 4 4 5 2 9 15 16 16 18 15 13 13 14
8 8 8 7 7 7 6 6 6 6 7 7 7 7 7 9 10 11 18 19 11 6 3 3 4 6 5 2 9 14 6 6 19 23 19 11 7 10 10 12 15 15 16 17 10 2 4 6 3 3 3 2 2 1 2 1 4 5 0 3 2 1 4 5 3 4 3 2 1 3 1 3 2 1 4 4 4 3 6 12 15 16 16 15 12 11 13 15
8 8 7 7 7 7 7 6 6 6 6 5 5 6 7 7 8 9 14 18 18 17 15 13 8 4 5 7 7 7 5 12 18 19 16 9 7 10 10 12 14 14 15 15 12 6 4 2 2 3 3 2 3 1 3 2 1 0 1 2 2 2 5 5 5 7 5 2 1 1 4 3 2 2 3 3 2 3 7 9 9 12 11 9 9 9 13 13
8 7 7 7 7 7 7 6 6 5 5 5 4 4 5 5 6 8 10 11 13 14 14 17 17 14 14 11 9 7 8 15 17 18 15 7 6 9 11 13 12 13 13 14 15 10 3 3 4 4 5 3 3 1 2 1 1 1 1 1 2 3 4 3 3 5 4 1 2 1 5 3 2 1 2 0 1 3 8 9 7 9 9 8 7 8 13 14
8 8 8 7 8 8 6 6 5 5 4 4 4 3 4 5 5 6 7 8 7 9 11 12 14 21 27 20 10 6 9 15 17 19 16 8 8 10 11 12 11 12 11 13 13 8 4 5 5 5 3 2 1 2 2 1 2 1 2 1 1 5 3 3 3 5 4 0 2 2 4 2 2 2 1 3 3 4 8 9 7 9 8 7 7 7 11 14
8 8 8 7 8 8 7 6 5 4 4 3 4 3 4 4 4 4 5 6 7 9 10 11 10 11 21 20 9 5 10 15 18 19 18 11 9 12 10 9 12 12 10 11 9 7 6 4 6 6 1 1 1 2 1 2 2 1 4 2 5 8 4 4 3 4 3 1 4 2 1 4 4 5 2 3 3 3 8 9 7 8 6 6 7 5 8 12
9 9 8 7 8 8 7 6 5 4 4 5 5 5 5 4 3 3 3 4 5 7 8 10 10 9 12 9 6 12 13 16 18 16 18 14 9 9 9 10 12 13 11 11 9 10 8 5 10 9 2 4 1 1 3 4 3 1 5 3 3 9 3 2 2 6 5 1 6 5 3 4 1 5 3 2 3 5 8 7 6 6 5 4 5 5 6 10
9 9 8 7 8 9 7 5 4 4 5 6 6 6 5 4 4 5 6 6 4 5 7 7 8 11 12 4 3 16 17 18 20 17 19 17 11 8 7 8 12 14 14 12 11 11 9 7 13 9 3 4 0 2 4 5 4 1 4 3 3 5 4 5 5 6 6 2 6 7 4 4 1 5 4 1 3 6 8 7 6 5 4 4 4 5 5 8
7 7 6 6 7 8 7 4 3 4 7 7 6 5 5 5 5 6 9 11 8 6 5 6 5 7 8 3 2 15 20 21 25 24 21 17 15 11 6 3 4 10 14 13 10 9 9 8 10 6 3 4 4 4 4 4 4 4 4 3 3 2 5 9 5 3 3 4 6 7 4 4 2 4 5 3 5 4 7 7 5 5 5 4 4 5 4 6
6 5 5 5 6 7 5 5 6 7 6 4 3 1 2 4 5 7 9 11 13 10 7 7 6 7 6 1 5 13 17 19 22 25 21 15 14 14 12 6 2 4 7 11 10 9 11 10 6 3 2 5 6 4 3 3 4 3 3 3 5 4 6 7 4 1 2 3 5 5 2 4 0 3 6 3 7 5 7 7 5 5 4 4 3 4 4 4
6 5 5 5 6 6 6 11 14 13 12 12 11 8 8 6 3 4 2 3 7 9 11 10 7 7 6 4 5 8 10 13 18 26 25 16 12 16 17 10 6 5 1 6 14 11 11 9 2 1 4 5 3 3 5 5 5 3 3 2 4 4 5 7 5 2 4 3 4 3 2 4 2 4 6 2 6 6 7 7 6 5 3 3 3 3 4 5
6 5 5 6 6 7 12 19 22 23 22 21 18 18 21 20 15 13 9 4 2 4 9 13 10 6 4 7 5 9 13 13 18 27 29 19 10 14 18 10 7 8 3 4 12 11 7 5 3 3 4 5 5 6 6 2 3 4 5 4 4 3 3 6 7 3 5 4 3 5 4 4 4 5 5 1 5 8 7 6 5 4 3 3 3 3 3 4
7 7 7 7 8 11 16 18 18 17 14 9 8 8 10 14 20 27 28 18 9 4 3 7 7 4 1 5 7 14 12 8 17 28 33 25 11 9 13 10 7 8 7 4 7 8 4 4 5 4 4 5 4 3 4 1 3 4 6 3 6 7 4 7 8 4 4 4 4 4 5 3 4 5 5 4 5 7 6 5 4 3 3 3 3 2 3 4
7 9 9 9 11 13 14 12 9 6 2 3 6 5 2 3 8 13 18 16 8 5 5 1 2 3 1 4 10 17 9 3 12 24 33 28 12 7 11 10 8 8 7 2 4 5 3 6 5 2 4 5 4 2 2 1 1 3 5 3 6 8 6 7 8 5 3 2 5 2 0 2 4 4 4 4 5 7 5 5 3 3 3 3 3 3 3 3
8 9 10 9 10 10 9 7 5 4 5 7 6 4 1 2 5 1 2 6 5 6 8 2 1 3 1 3 11 15 5 1 7 19 34 29 10 6 8 7 8 7 6 2 3 4 5 7 4 4 4 4 3 1 2 1 1 2 4 5 6 5 7 8 5 4 3 4 7 1 2 2 3 3 3 4 4 5 4 4 3 4 4 3 3 3 2 1
8 8 10 9 8 7 6 6 5 7 6 4 2 6 4 5 9 8 5 5 4 6 6 3 4 4 2 3 12 12 3 5 9 18 35 29 11 6 4 6 7 2 6 3 2 5 6 5 5 5 0 2 3 3 3 4 3 2 3 4 6 5 7 7 3 2 1 4 6 3 3 1 2 2 3 4 3 3 2 3 4 4 5 4 3 3 2 2
7 7 9 9 8 6 4 3 1 0 2 6 10 11 8 10 11 8 5 6 2 3 3 4 5 5 4 5 14 12 7 6 5 13 28 21 8 5 3 6 5 1 6 6 4 4 3 3 4 1 3 3 2 4 4 5 4 4 4 4 6 7 6 6 6 5 4 5 5 2 2 1 2 2 3 3 2 3 3 5 5 4 5 3 2 2 2 4
5 6 7 7 6 6 6 6 6 8 11 13 14 12 11 10 8 5 5 4 1 1 1 1 3 4 3 5 13 9 5 4 0 9 22 15 4 3 4 3 4 4 5 3 5 6 3 2 0 3 3 3 2 5 6 6 5 5 4 3 6 9 6 7 9 10 8 4 1 3 4 1 2 2 2 2 3 4 3 5 6 4 3 2 1 1 3 4
4 4 5 4 4 4 4 5 7 10 11 11 12 11 9 7 3 2 4 3 3 2 2 1 2 4 3 6 13 5 3 3 2 6 15 13 5 2 3 1 2 6 5 1 5 5 2 1 1 3 5 6 5 5 6 5 5 6 4 3 6 10 11 12 11 8 6 3 1 3 4 2 1 4 4 3 3 4 3 4 5 3 3 2 3 3 5 5
4 3 3 2 1 1 1 2 5 8 7 6 9 9 7 5 2 2 3 5 4 3 5 3 1 7 6 8 12 2 3 5 2 6 14 13 5 2 3 3 2 5 3 0 3 2 2 3 3 4 4 6 7 4 3 3 5 6 3 1 7 10 12 14 10 4 3 4 2 2 0 3 1 3 6 5 5 4 4 4 3 2 2 2 3 4 6 7
4 2 1 0 1 1 1 2 6 6 3 3 8 7 4 3 3 2 3 5 4 2 4 4 2 7 6 8 10 3 3 8 5 8 14 15 8 2 4 6 2 3 2 2 3 1 2 6 7 6 5 6 6 4 4 2 4 5 4 5 10 13 13 13 7 1 2 4 3 2 1 3 2 2 3 6 6 4 5 4 2 2 3 3 5 6 6 7
6 3 2 2 3 2 1 4 8 5 2 6 8 4 1 1 1 1 4 5 3 1 2 3 2 6 6 8 12 7 1 7 3 7 15 16 12 3 4 5 1 3 3 4 4 4 1 5 6 5 6 5 3 5 5 1 1 6 7 8 11 11 10 10 5 1 2 3 3 3 2 2 5 2 2 4 5 3 4 3 4 4 5 6 6 7 7 6
7 5 3 1 2 3 4 7 7 4 4 8 7 3 2 1 1 3 6 3 2 1 1 1 2 5 7 7 9 5 3 4 3 7 14 13 14 7 3 2 2 1 4 4 2 4 2 1 1 3 4 2 4 7 5 1 2 7 8 9 10 7 2 3 2 1 2 4 5 6 3 3 7 4 2 2 2 2 4 3 3 4 6 7 6 6 7 7
8 6 3 1 3 5 7 6 6 7 7 7 6 3 3 2 4 5 4 1 1 2 1 3 3 4 8 7 6 5 5 4 2 6 7 5 11 11 4 1 4 4 2 4 2 3 3 1 2 3 2 1 4 6 4 1 4 7 7 8 9 5 1 2 2 2 4 3 5 4 2 3 6 2 2 2 2 4 3 2 4 5 6 7 5 6 7 8
10 9 5 1 5 6 6 5 7 8 6 6 6 4 2 2 5 7 2 2 1 3 3 4 3 4 7 6 4 6 4 4 5 6 6 3 9 12 6 4 4 3 4 6 5 6 5 2 0 0 0 0 1 4 2 1 3 5 6 8 10 7 3 2 2 4 3 3 5 3 2 4 5 2 3 3 3 5 3 2 6 7 8 7 6 6 8 9
13 11 8 4 5 5 5 7 8 8 7 7 6 3 4 3 4 3 1 3 2 2 2 2 3 4 4 3 4 6 4 4 5 5 4 3 6 8 7 6 4 4 6 5 5 7 3 0 2 2 1 2 3 4 4 3 5 6 7 8 8 8 6 4 4 5 3 5 6 7 7 5 3 0 5 6 4 3 3 1 3 5 6 7 7 7 8 9
15 10 8 9 7 8 10 10 8 8 7 6 3 5 7 5 2 1 3 3 2 2 1 0 3 3 3 3 5 5 2 2 5 5 2 2 4 5 7 7 6 4 3 3 5 6 4 3 4 4 1 2 6 6 6 5 5 6 5 6 6 6 6 6 6 6 7 8 10 10 5 2 2 1 5 7 4 3 2 2 3 4 5 7 7 8 10 11
16 11 9 11 10 10 10 8 7 7 5 3 4 5 7 4 1 1 2 2 1 3 1 1 3 3 3 3 2 4 2 2 4 5 4 3 5 4 4 6 8 3 1 2 3 3 4 5 4 4 3 3 6 4 2 3 2 3 0 4 5 3 3 5 4 5 9 10 10 7 1 2 6 3 5 4 2 3 2 2 2 3 5 7 9 11 12 12
12 15 13 12 10 8 6 5 5 5 2 4 6 6 5 2 3 1 1 3 1 2 2 1 2 4 3 3 2 2 1 2 3 4 4 4 3 2 3 4 5 3 2 2 1 1 2 5 5 2 2 1 4 2 1 1 1 2 1 3 4 4 2 4 4 6 10 10 7 4 0 2 2 2 3 1 3 3 2 1 3 7 9 11 12 12 12 13
5 13 16 15 11 6 4 3 3 2 2 5 7 5 2 3 2 2 2 1 1 1 2 2 3 5 4 5 3 4 2 1 2 3 3 2 1 1 1 2 3 3 2 2 1 2 1 5 7 6 4 2 3 2 1 2 2 1 2 3 5 4 1 1 6 7 7 8 5 3 5 4 1 2 1 3 5 6 6 6 8 10 13 14 13 14 15 14
1 6 12 16 14 6 3 2 2 1 3 7 7 3 2 2 1 2 2 0 1 1 3 1 2 3 2 3 4 6 4 2 3 3 2 1 1 2 2 1 1 2 1 2 1 1 1 5 7 4 4 3 2 3 3 2 2 3 3 5 4 1 3 2 5 6 7 9 4 4 10 8 4 3 2 3 8 11 12 11 11 12 14 14 14 15 17 15
2 3 7 15 15 7 4 2 1 3 6 8 6 3 1 1 1 2 2 1 1 2 5 2 0 1 1 1 3 5 5 3 4 4 2 2 1 2 2 1 0 1 2 1 1 0 1 4 6 1 3 7 1 5 3 4 3 4 2 3 2 4 4 3 2 4 8 11 7 8 11 6 4 4 3 7 13 15 14 13 13 16 15 14 16 17 16 15
3 2 4 13 14 7 4 1 2 6 7 6 3 2 1 1 1 1 1 1 1 3 4 1 1 1 1 2 1 3 4 2 2 3 2 2 2 2 3 0 0 1 2 1 2 1 1 1 5 3 4 7 3 3 3 4 4 4 3 3 2 1 1 1 1 0 4 8 10 11 11 6 3 3 6 13 16 15 15 13 14 16 16 16 17 16 15 16
2 2 1 12 13 5 4 5 6 8 7 4 3 2 1 1 1 1 1 1 1 2 2 2 2 2 0 1 0 1 2 2 1 1 1 1 1 1 2 1 1 1 2 3 3 0 1 1 3 5 4 4 3 1 1 1 1 4 4 4 5 2 2 2 1 1 1 5 9 9 8 6 3 1 7 15 14 11 12 14 15 15 17 17 16 15 16 15
3 2 2 14 12 2 3 9 8 5 4 4 2 2 1 1 2 1 2 1 1 0 1 4 3 1 1 1 1 1 1 2 1 1 0 1 1 1 1 1 2 1 2 4 3 0 0 1 3 5 5 3 3 2 3 5 3 4 3 2 3 3 3 4 5 1 2 1 4 4 7 8 2 2 8 13 11 9 12 15 16 16 18 18 16 16 16 14
5 3 4 14 8 3 7 8 4 3 4 3 2 2 1 2 2 1 1 2 2 1 2 3 2 2 2 1 1 2 1 1 0 1 0 1 0 0 1 1 1 1 1 1 2 2 2 2 1 5 5 5 5 1 1 3 6 6 3 2 1 2 4 3 4 5 2 2 4 4 7 7 1 4 11 11 8 10 13 14 15 17 18 17 17 17 14 12
3 3 4 12 3 5 10 6 2 5 4 1 1 1 1 2 2 1 1 2 2 1 2 2 1 1 1 1 1 2 2 1 1 1 1 2 2 1 1 1 1 1 1 1 2 1 1 2 1 5 5 4 2 1 1 2 4 4 3 3 2 2 2 4 4 4 3 3 5 5 8 7 4 8 12 11 10 12 13 13 15 18 16 16 19 16 12 12
2 4 4 12 4 3 5 4 2 3 2 1 2 2 2 1 2 2 1 1 1 1 2 1 0 1 1 1 2 2 1 1 1 0 1 2 2 2 3 1 1 1 1 0 1 2 1 1 3 5 6 6 4 4 2 2 2 2 1 2 3 4 3 1 1 2 1 4 7 8 8 9 9 11 12 12 12 13 13 12 14 16 15 17 17 13 11 14
3 1 2 12 13 8 4 3 6 6 3 3 4 2 2 2 2 1 2 1 0 2 2 1 0 1 1 1 2 1 0 1 0 1 1 1 2 1 3 0 2 1 1 1 2 1 1 0 2 3 4 6 6 6 7 7 6 2 2 3 3 4 3 1 2 3 3 7 8 7 9 13 15 15 14 13 13 15 16 16 16 14 15 17 15 11 12 14
2 2 2 7 11 9 4 1 5 6 5 5 4 2 2 3 1 1 2 2 1 1 2 1 0 1 2 2 2 1 2 2 2 1 1 1 3 1 1 0 1 0 2 0 3 3 2 0 2 5 4 5 7 9 10 9 7 7 4 3 2 1 3 2 3 2 5 9 9 7 11 18 20 17 14 12 14 17 18 19 18 17 18 17 12 11 13 13
2 3 1 1 3 5 5 4 5 4 3 4 3 0 1 2 1 1 1 1 1 1 2 2 1 1 1 1 2 0 1 2 2 1 2 2 3 3 1 2 1 1 3 1 3 4 4 2 3 5 7 9 9 12 13 10 8 9 7 2 2 2 2 3 2 4 5 9 11 13 16 19 19 16 13 14 15 16 18 19 18 18 19 15 11 13 15 16
2 3 1 1 2 3 3 3 3 5 4 3 3 1 2 2 1 1 0 0 1 1 1 1 3 2 1 1 2 1 1 2 1 1 1 1 2 3 3 1 1 1 2 1 3 4 5 2 3 3 6 10 10 12 13 9 6 6 3 1 1 3 3 2 5 7 5 5 12 19 20 18 16 15 14 14 14 14 16 17 16 17 16 12 12 14 16 17
3 4 1 2 3 3 1 2 4 6 5 4 3 2 2 4 3 2 1 1 2 2 1 1 2 2 2 2 3 2 1 1 1 2 2 2 1 2 2 0 1 1 2 2 3 2 3 3 3 2 6 10 11 11 10 6 4 4 3 2 2 4 6 6 7 7 6 8 13 18 19 15 11 11 14 14 13 13 13 14 17 17 13 11 13 15 17 18
2 4 2 3 4 2 2 3 3 5 4 4 3 1 2 5 4 2 0 1 1 1 1 1 3 2 2 3 4 2 3 4 2 3 4 3 1 1 1 1 2 2 3 2 1 1 1 2 0 2 4 9 9 7 6 4 4 4 3 3 4 5 6 5 5 6 7 10 11 11 14 13 8 9 14 14 13 13 15 17 19 15 11 11 15 16 17 18
4 5 7 7 4 3 2 2 2 4 2 2 2 3 2 4 5 4 1 0 3 2 1 2 4 3 1 2 2 2 4 5 4 5 6 4 1 3 2 2 3 1 3 1 1 2 2 2 2 4 3 7 4 4 10 5 3 3 2 4 4 5 6 5 5 7 9 11 11 9 9 11 10 12 15 14 14 16 17 19 18 12 10 12 16 17 18 18
6 5 5 7 4 2 1 2 3 3 2 0 2 3 1 3 4 3 3 1 2 3 2 3 5 3 2 1 3 4 4 5 4 4 4 4 2 2 1 2 4 2 1 2 1 1 3 1 2 3 3 6 3 8 14 8 4 2 3 4 2 5 8 8 7 9 6 4 5 5 6 10 12 13 15 16 17 17 16 17 14 9 9 13 15 16 16 17
Wind_Direction
54 52 51 46 44 45 45 57 74 79 71 59 51 55 59 63 63 66 70 73 97 91 99 136 121 79 41 27 26 36 41 49 46 38 39 12 356 359 354 354 351 347 346 346 8 21 35 34 18 34 57 53 13 348 13 20 44 48 79 87 288 224 209 198 189 204 206 312 303 281 311 138 236 176 163 65 51 71 61 43 35 44 51 66 96 114 121 125
60 55 49 40 36 43 51 65 81 80 68 58 52 57 61 64 61 65 75 76 91 81 107 160 306 277 329 340 344 11 36 42 40 32 19 2 1 6 2 2 357 352 353 358 13 25 58 7 1 45 52 50 351 347 28 10 37 78 116 89 238 207 220 203 186 213 209 301 300 277 343 190 235 145 158 197 81 112 81 51 43 65 63 67 88 104 112 110
55 50 44 34 31 45 62 73 83 80 68 59 54 62 67 66 57 57 73 82 85 84 98 37 331 285 289 286 312 344 15 39 39 15 357 360 3 7 6 5 4 5 9 19 19 27 81 85 60 65 51 59 354 358 36 10 5 132 124 312 240 219 242 237 215 231 219 234 301 293 347 156 248 146 167 188 163 189 154 152 114 105 112 98 94 104 106 96
44 45 37 27 31 49 69 78 84 80 68 60 57 67 73 67 54 48 62 82 85 91 88 66 49 33 342 275 304 281 287 45 35 343 348 356 1 4 4 4 7 16 22 31 36 45 81 82 64 64 65 52 340 21 42 344 337 141 121 196 231 209 229 306 249 239 235 215 168 250 300 295 249 186 172 156 164 252 222 197 163 153 148 136 125 112 104 92
44 45 31 23 34 52 71 81 84 79 67 62 61 71 74 65 53 43 52 87 103 103 95 74 59 54 58 51 14 253 35 54 346 338 347 351 1 6 3 2 7 17 24 32 38 49 64 51 55 48 57 53 346 30 37 302 83 125 107 192 213 178 184 325 305 239 224 172 99 110 277 290 196 155 168 164 204 259 259 244 157 144 145 137 130 114 100 90
43 40 32 31 41 56 74 84 84 78 69 63 64 71 71 62 54 44 45 79 124 119 105 78 56 55 63 56 55 69 85 92 323 337 344 348 3 8 3 360 7 18 30 45 37 48 47 28 55 47 46 62 8 58 255 293 32 198 294 336 227 192 272 324 336 297 205 103 72 189 258 48 71 316 188 126 293 291 285 202 133 129 132 122 112 104 96 90
39 37 41 42 48 62 76 87 85 78 68 62 66 70 70 62 59 51 44 57 125 144 116 54 29 34 48 46 53 60 82 79 334 338 344 352 6 6 4 2 10 16 30 41 32 55 62 35 64 111 82 66 286 126 273 302 24 68 296 351 331 189 306 324 332 331 64 146 271 157 85 138 179 280 65 45 343 323 45 115 118 116 112 106 98 95 94 92
41 41 45 47 54 65 75 86 81 74 67 63 69 69 70 66 66 61 49 55 79 97 65 5 337 352 12 52 59 56 63 340 340 344 349 360 14 3 359 6 12 17 33 38 28 85 88 46 89 153 79 64 176 136 0 328 26 54 75 324 355 216 313 325 348 4 14 290 309 98 198 242 197 125 66 10 347 31 90 106 108 106 98 94 94 95 96 93
46 46 48 51 57 66 75 82 80 77 74 69 73 71 71 68 71 68 56 60 72 76 67 52 42 20 63 94 89 63 9 341 344 352 2 10 12 359 360 15 18 23 39 40 35 65 101 85 181 176 139 142 133 50 345 15 355 72 229 304 4 342 321 341 12 13 4 317 48 96 283 288 180 111 60 353 349 88 104 102 99 100 92 92 97 95 99 95
52 54 58 60 65 75 81 86 88 86 85 83 78 69 66 70 77 72 60 59 66 68 59 54 58 70 83 81 72 65 347 345 359 7 15 17 357 355 12 26 28 33 44 43 39 49 86 154 181 150 128 114 99 57 346 41 109 191 288 175 78 342 309 348 18 3 353 307 48 283 281 294 185 136 59 280 198 143 113 99 88 94 95 98 100 96 99 94
62 69 67 69 78 87 92 96 100 99 103 96 77 67 67 79 85 72 61 60 63 61 51 52 59 67 71 68 71 61 347 351 10 19 24 20 4 12 28 35 38 43 50 51 43 46 89 149 153 127 105 85 109 29 7 103 119 87 347 157 5 344 311 353 7 348 351 296 17 236 260 344 70 17 15 176 183 163 115 99 85 93 101 100 102 98 95 92
75 76 71 76 88 97 103 105 114 116 112 96 84 82 73 78 91 80 65 65 69 62 51 51 54 62 64 64 66 28 358 4 14 25 33 30 26 32 43 43 44 47 54 64 52 52 88 145 112 92 8 144 139 12 114 98 97 124 30 45 324 356 357 339 349 333 341 260 333 294 299 14 29 347 315 155 147 145 101 94 92 96 103 99 104 100 92 90
79 76 72 82 95 105 110 114 126 124 111 98 92 81 69 72 85 82 60 62 65 55 52 56 61 66 63 67 46 22 16 15 16 27 35 34 40 43 52 54 54 52 52 69 67 59 78 107 94 99 113 97 97 330 115 47 43 242 24 62 340 3 342 301 345 333 343 345 346 354 333 324 348 0 356 133 133 131 99 94 107 104 107 105 104 98 94 88
81 75 74 86 102 109 106 107 116 112 105 101 95 83 69 62 77 86 70 65 74 61 55 58 71 72 64 107 56 22 17 23 26 23 20 23 34 41 61 69 65 56 50 62 68 65 77 94 87 94 87 69 38 0 46 15 22 347 6 54 32 5 288 311 342 346 354 343 5 13 318 278 150 14 347 208 176 141 113 111 120 113 110 106 102 98 93 83
74 69 78 93 106 103 88 81 87 99 107 108 103 89 61 54 81 97 77 65 64 63 65 58 73 85 67 105 42 14 15 27 25 16 10 12 23 18 9 42 62 46 46 54 65 65 65 79 74 60 326 8 40 41 19 350 16 33 12 343 349 344 283 315 327 14 357 301 7 26 307 269 142 343 318 187 181 154 121 126 125 115 113 105 100 95 89 80
57 66 93 109 110 96 74 66 78 95 111 118 116 107 73 76 97 102 84 69 59 53 65 50 44 87 86 7 339 3 14 19 10 10 13 12 17 7 358 9 323 353 46 53 54 53 45 57 72 53 356 14 38 48 32 14 356 15 37 315 299 306 308 320 315 29 27 290 350 26 285 279 246 328 318 184 172 152 125 127 120 114 111 104 98 89 88 80
57 80 109 121 113 94 87 94 96 98 99 98 94 90 87 83 140 156 122 68 53 49 62 41 29 89 77 352 345 346 348 355 357 8 14 14 15 11 14 24 353 340 134 43 30 28 26 41 76 52 43 33 35 51 44 19 331 331 19 295 273 283 298 317 310 323 31 18 337 353 231 272 316 339 326 227 164 135 124 129 125 120 108 100 97 88 86 76
69 84 109 123 111 104 111 110 107 105 101 95 87 83 81 76 81 81 61 61 35 21 47 24 25 90 32 355 353 315 314 335 0 10 13 12 9 14 23 28 357 4 45 15 18 20 11 24 54 56 36 21 23 44 51 5 296 313 323 311 302 284 251 292 294 300 13 18 323 306 273 280 337 350 354 36 132 121 122 126 123 118 109 106 93 89 83 71
78 76 91 105 106 117 121 117 113 111 105 83 61 62 72 68 68 61 51 55 60 45 46 350 13 106 312 325 319 320 312 326 9 12 9 5 351 1 21 26 22 32 40 13 5 14 14 26 39 43 9 353 356 48 95 156 232 282 293 283 292 296 281 271 270 281 2 346 284 283 279 300 357 357 14 36 100 113 119 118 114 113 109 106 89 82 70 64
78 69 82 99 117 128 127 125 127 129 121 337 341 346 4 34 46 41 32 44 66 80 100 271 5 93 334 315 327 342 337 319 22 15 6 360 342 349 12 13 28 45 43 358 326 358 57 56 39 12 310 307 299 252 148 131 213 280 291 277 275 285 297 282 274 286 23 342 274 249 341 348 16 2 20 48 92 107 116 114 112 119 107 95 84 69 56 60
72 66 77 102 133 145 148 163 190 234 279 297 313 352 147 137 74 110 320 41 52 57 76 95 66 68 333 329 342 352 357 299 16 13 7 4 357 6 3 7 32 32 10 293 281 338 56 58 8 280 271 282 309 234 140 44 295 283 302 306 299 286 293 297 282 278 27 0 298 332 53 5 32 9 32 70 96 103 115 121 116 112 98 87 81 58 37 43
68 66 76 96 129 153 181 205 237 259 279 307 46 83 118 131 113 138 152 86 30 27 65 65 56 40 316 8 357 354 27 359 350 2 4 6 18 28 2 28 54 15 339 359 0 359 44 45 320 288 215 96 55 74 67 6 336 316 325 318 313 316 315 316 293 241 36 345 304 355 27 337 52 46 53 64 93 91 76 95 100 101 94 80 67 48 13 338
62 68 76 89 108 120 126 111 79 137 122 111 102 99 108 112 120 131 104 94 48 357 29 34 60 27 350 25 4 3 51 30 344 347 359 6 21 38 52 38 42 0 353 21 51 49 52 6 328 14 96 104 44 29 34 10 355 338 333 323 310 327 340 322 314 311 312 285 275 343 339 273 91 81 77 66 78 79 63 72 75 81 96 94 80 77 5 340
58 66 73 83 96 101 93 81 87 99 106 113 106 109 124 120 123 115 82 89 58 1 9 38 113 60 28 8 357 9 78 53 9 335 356 13 14 13 65 47 28 23 359 24 79 88 84 306 87 84 55 61 31 11 22 13 355 326 293 276 300 321 321 287 298 316 314 290 271 357 324 258 131 174 154 110 87 87 72 70 72 62 76 77 30 347 332 333
52 62 68 77 91 102 96 80 95 107 105 109 111 116 121 118 138 108 85 74 17 330 349 44 109 42 25 350 354 10 120 48 75 338 355 14 2 350 47 44 59 20 335 20 78 81 56 295 124 41 18 42 46 19 16 10 351 327 282 253 300 314 307 294 306 331 334 322 52 35 339 305 182 199 194 163 138 120 85 73 81 60 43 25 338 317 321 317
35 52 61 66 89 125 126 86 106 117 109 109 125 130 116 108 127 102 93 67 18 320 355 12 43 12 352 343 345 355 88 3 325 3 8 11 355 156 56 346 35 17 315 122 73 89 16 354 49 58 37 40 39 19 4 18 3 335 286 286 315 311 303 304 323 6 342 300 300 72 349 269 259 222 214 179 156 128 92 79 71 36 18 346 300 307 321 319
12 11 17 234 195 219 268 154 143 139 118 149 152 141 121 106 95 80 75 43 4 309 359 337 337 10 357 343 348 71 70 322 315 18 11 8 355 152 63 8 0 349 302 82 24 348 7 360 20 42 33 33 33 354 323 24 12 318 305 342 320 309 305 305 326 59 247 296 328 49 85 260 274 266 219 158 146 127 103 78 29 347 323 304 294 305 309 309
6 352 317 255 213 234 236 154 155 155 137 171 169 159 168 168 156 58 82 67 349 329 32 314 338 14 358 358 16 72 77 317 14 355 345 9 11 22 65 31 39 283 310 61 14 301 7 19 13 24 23 26 7 314 300 354 5 287 309 326 302 295 295 293 305 247 262 349 337 339 39 301 286 315 55 125 143 136 106 59 351 317 311 310 301 296 291 292
12 358 334 271 190 164 150 148 154 151 147 164 170 180 195 141 78 54 79 104 327 358 179 323 5 350 349 8 20 45 13 1 65 327 336 12 14 19 86 43 113 205 317 55 59 293 337 32 179 87 55 10 297 296 301 302 282 289 309 314 297 291 291 295 309 305 7 29 329 318 34 356 308 323 39 97 117 77 82 54 327 295 300 307 297 285 283 289
19 16 11 179 158 140 141 132 129 137 140 155 164 164 152 86 63 64 54 151 347 335 271 20 20 340 5 20 358 2 28 14 332 332 347 10 1 15 92 157 74 102 346 26 56 303 326 286 193 108 93 238 271 294 312 303 294 310 325 330 325 320 84 61 343 18 31 3 297 299 58 14 318 326 52 55 102 93 85 20 331 319 319 317 302 296 298 300
24 28 28 140 156 147 146 118 121 142 138 141 152 135 107 38 60 89 85 257 303 336 9 23 0 9 29 38 358 352 20 348 332 9 14 1 4 13 32 14 26 54 10 12 357 334 1 41 332 310 207 166 269 285 314 22 324 338 351 355 349 338 358 27 4 37 37 301 274 273 331 328 304 303 95 122 134 116 110 17 348 339 337 332 314 307 310 310
29 30 36 82 146 147 139 135 135 139 136 141 141 84 76 32 28 95 282 315 338 340 27 358 323 8 11 28 15 341 338 343 0 46 33 18 31 25 33 25 357 8 9 7 350 344 4 174 302 322 305 27 10 329 341 10 6 4 9 15 6 342 342 349 346 357 337 301 313 315 315 309 291 296 134 149 152 147 165 165 332 324 329 327 313 309 315 319
37 36 48 71 107 116 115 132 140 135 143 144 103 48 76 78 37 211 281 331 9 333 21 249 307 339 336 14 10 333 341 356 357 34 42 59 56 34 38 30 15 23 353 342 357 350 335 299 341 16 334 18 45 18 345 339 359 0 6 28 15 345 334 322 321 330 316 308 313 316 309 275 318 27 147 157 171 194 195 201 251 294 317 315 312 318 322 326
44 49 65 72 86 101 107 125 137 135 141 105 64 49 65 75 195 186 296 283 285 341 25 185 315 343 38 49 341 316 18 0 351 29 17 26 45 17 11 12 18 48 150 14 16 13 4 324 346 29 329 350 49 43 297 266 322 323 275 70 28 347 308 300 304 318 315 308 311 332 8 275 322 349 153 161 198 223 237 219 234 309 325 323 324 326 329 330
45 51 63 66 67 80 95 120 141 144 127 63 64 64 79 144 226 155 248 266 286 338 310 271 12 32 15 351 329 337 38 318 355 50 26 23 62 26 353 344 355 19 80 42 335 26 42 274 275 344 305 13 42 352 230 159 305 264 162 76 7 322 253 261 284 292 300 303 306 334 71 241 317 71 122 318 293 276 269 279 359 350 343 340 334 333 334 329
41 46 49 47 43 49 72 105 141 156 107 77 66 57 123 190 205 156 190 279 308 284 305 317 37 49 344 318 340 358 7 305 347 43 38 41 117 51 12 275 323 10 65 91 316 353 41 276 295 345 345 67 66 339 354 36 343 326 22 349 306 302 161 262 307 299 300 307 301 316 320 312 51 73 19 293 302 329 354 2 1 350 343 341 338 337 332 327
92 50 40 30 24 30 63 86 145 130 80 78 81 95 197 191 143 175 193 282 252 152 78 56 19 35 331 306 321 330 344 345 356 26 39 28 69 70 51 271 289 20 17 130 173 289 160 283 303 355 331 291 110 73 53 23 26 64 2 312 284 286 114 94 324 317 324 318 305 328 325 329 4 349 291 297 327 348 0 359 352 344 341 340 338 333 327 330
158 100 43 19 13 24 54 60 112 96 78 68 78 128 177 142 141 201 188 169 259 55 74 101 164 35 205 244 308 316 342 359 2 23 45 356 12 112 89 327 72 62 316 52 89 236 141 295 304 29 278 290 0 74 26 336 26 69 5 322 0 347 352 34 338 320 333 321 309 322 321 324 350 332 327 342 346 354 356 352 347 341 341 340 335 330 329 337
148 115 39 5 5 19 31 57 101 68 71 76 88 144 138 114 233 225 192 200 108 83 75 162 204 50 147 168 255 315 356 23 356 13 66 17 0 109 109 312 305 26 334 76 121 243 121 309 294 284 286 306 352 53 352 326 344 23 19 2 22 342 274 141 167 275 338 316 308 319 321 330 338 313 342 352 355 357 351 347 344 341 340 338 333 332 337 338
130 103 356 353 360 18 35 55 68 50 64 107 152 151 92 162 233 279 297 333 94 95 82 178 161 49 346 190 164 333 17 51 19 18 68 17 347 56 80 152 237 332 352 47 84 307 1 136 255 291 320 340 347 348 128 170 293 357 20 6 0 355 215 233 267 119 79 314 314 317 311 319 343 351 354 357 360 360 351 344 340 337 336 333 333 337 339 336
81 91 322 348 349 260 61 53 52 48 82 104 122 121 73 150 164 325 322 13 62 97 126 148 141 102 143 66 62 162 25 32 66 53 337 337 37 17 352 157 186 288 24 39 48 122 19 163 237 298 334 333 285 245 169 154 126 50 41 34 15 12 0 345 330 352 112 299 296 287 293 306 337 36 1 3 1 357 353 343 335 333 332 333 336 339 338 338
69 109 319 347 355 139 76 56 30 41 96 85 78 130 73 106 113 25 337 41 54 64 67 100 111 106 142 114 111 170 134 68 69 74 164 261 323 264 318 80 173 221 123 51 307 221 149 116 236 274 280 268 262 278 78 130 122 99 82 102 122 77 64 45 309 313 345 287 261 254 284 299 352 12 359 6 1 353 351 339 332 331 331 334 338 338 339 344
83 157 346 358 3 129 69 62 345 25 74 108 29 83 24 89 112 72 44 37 29 57 37 48 104 69 156 163 127 154 148 150 198 142 179 254 265 177 160 123 179 226 120 59 314 257 131 80 320 276 269 264 267 29 40 143 112 75 46 56 102 113 121 185 235 317 330 290 302 301 286 297 347 357 354 0 355 347 341 335 334 330 330 337 337 336 343 347
112 177 4 12 11 174 79 100 146 67 94 145 69 33 348 78 95 61 66 31 22 123 84 74 195 55 142 138 103 163 180 126 179 233 147 215 227 113 118 184 285 36 71 87 306 303 309 354 356 346 335 329 343 355 317 293 14 33 59 57 81 79 28 287 234 10 324 277 308 315 297 302 328 344 348 351 347 339 333 335 336 330 333 338 334 337 349 348
87 145 321 16 38 71 99 149 144 128 146 122 86 39 7 64 72 85 127 98 117 160 117 93 232 80 104 94 66 87 305 43 117 279 59 212 253 50 77 319 307 32 157 280 307 304 287 40 75 54 357 324 320 316 308 317 337 0 97 55 51 78 64 3 323 346 316 298 304 304 297 305 320 335 343 344 342 336 334 336 335 335 338 335 333 345 352 347
106 83 320 356 28 54 71 52 92 110 148 133 91 10 56 84 347 245 130 103 137 150 84 64 282 59 70 71 51 353 314 21 55 109 117 247 267 303 92 159 346 177 189 286 17 72 97 33 161 152 190 249 262 270 288 311 317 305 321 4 352 26 91 57 1 323 296 304 307 300 303 310 319 331 339 342 344 338 335 335 335 338 337 334 342 351 345 343
101 100 66 350 11 41 50 26 44 87 144 135 108 75 120 96 337 330 104 130 171 133 62 59 49 62 111 92 75 233 268 8 31 99 136 248 268 292 266 167 107 239 202 232 6 81 91 313 246 188 213 238 252 267 285 301 293 288 303 325 288 312 54 55 318 272 290 318 315 312 318 316 317 328 337 340 343 338 332 332 335 333 332 337 348 345 339 342
62 140 167 93 80 71 65 52 73 85 75 83 101 104 98 89 92 141 164 40 106 108 113 71 16 0 227 189 120 150 340 18 337 214 132 244 287 338 347 154 150 264 186 349 350 96 112 264 237 201 246 257 260 267 276 283 274 272 281 212 258 313 328 301 274 269 281 300 296 306 317 316 313 326 336 336 340 334 326 328 328 326 331 344 347 341 341 343
77 113 33 20 93 131 101 66 101 93 69 69 92 102 132 137 147 184 216 38 20 339 126 143 312 301 242 214 128 136 216 89 323 271 170 164 274 0 25 66 266 328 104 52 353 105 138 248 229 214 280 277 271 270 268 261 260 274 265 229 275 294 277 263 256 254 253 259 279 299 309 309 312 326 327 329 334 328 322 325 327 329 339 350 345 342 343 341
146 146 134 63 75 78 33 33 80 90 57 48 84 108 138 144 158 185 171 89 115 311 22 151 219 214 202 190 137 144 216 175 185 243 178 141 291 225 171 200 216 343 24 85 1 350 6 296 266 94 310 289 276 274 270 231 221 254 261 242 263 286 291 287 280 285 287 282 284 298 305 305 318 329 323 326 331 329 331 330 328 334 348 349 345 344 342 340
105 131 138 112 71 357 5 28 62 96 68 26 122 157 172 174 173 154 113 178 181 196 262 175 180 164 125 158 172 232 228 181 182 210 179 152 198 198 191 195 174 335 351 67 8 351 40 334 349 60 350 287 270 320 312 305 139 156 254 270 286 322 324 300 287 300 305 303 308 319 315 311 327 335 327 326 329 331 334 329 326 335 352 351 347 343 339 339
97 100 119 105 80 348 12 37 33 93 128 337 134 154 187 191 173 124 97 226 212 205 227 190 164 148 122 209 243 242 220 187 193 208 175 145 127 131 150 162 143 150 192 124 49 357 111 81 327 45 322 281 324 337 312 317 66 72 265 232 233 332 313 292 300 309 304 315 325 313 303 313 328 334 325 323 329 334 330 323 323 338 351 351 346 339 337 338